Find Starlink 5295

NORAD ID: 55306 Int'l Des: 2023-010 Owner: SPXS Country: US Constellation: starlink operational
LEOCIRCULAR

Current View

Loading 3D Globe...

About Starlink 5295

Description loading...

Upcoming Passes

Passes for default location (London). Set your location on the main map for personalized predictions.

Altitude History

Loading altitude history...

Two-Line Element Set

1 55306U 23010AP 26149.43384226 .00000102 00000-0 16345-4 0 9995
2 55306 69.9987 161.0048 0003354 268.6245 91.4529 14.98327850185862
Epoch: May 29, 2026 • Age: 19 hours

Current Status

Altitude 574.5 km
Velocity 7.57 km/s
Sub-Earth Point 15.05°N, 168.84°W
Launch Date Jan 19, 2023
Age 3.3 years
Type internet

Technical Details

Classification Payload
Mass 305.00 kg
Dry Mass 290.00 kg
Total Mass 305.00 kg
Length 0.20 m
Diameter 2.80 m
Span 9.00 m
Shape Box + pan
Manufacturer SPXS
Bus Type Starlink
Phase Status In Orbit
Owner/State SPXS/US

Most Searched